This is the latest recevied weather packets stored in our database for station/object N6OIM. If no packets are shown the sender has not sent any weather packets the latest 10 day(s).
| Time | Temp. | Humidity | Pressure | Rain* | Wind** | Luminosity | Snow |
|---|---|---|---|---|---|---|---|
| 1787847211 | 25° C | 45% | 1011.7 hPa | 0 mm | - | - | - |
| 1787846902 | 25° C | 45% | 1011.7 hPa | 0 mm | - | - | - |
| 1787846611 | 25° C | 45% | 1011.8 hPa | 0 mm | - | - | - |
| 1787846298 | 25° C | 45% | 1011.7 hPa | 0 mm | - | - | - |
| 1787846011 | 25° C | 45% | 1011.8 hPa | 0 mm | - | - | - |
| 1787845699 | 25° C | 45% | 1011.8 hPa | 0 mm | - | - | - |
| 1787845408 | 24.44° C | 46% | 1011.7 hPa | 0 mm | - | - | - |
| 1787845096 | 24.44° C | 46% | 1011.6 hPa | 0 mm | - | - | - |
| 1787844805 | 24.44° C | 46% | 1011.6 hPa | 0 mm | - | - | - |
| 1787844513 | 23.89° C | 47% | 1011.6 hPa | 0 mm | - | - | - |
| 1787844202 | 23.33° C | 47% | 1011.7 hPa | 0 mm | - | - | - |
| 1787843910 | 23.33° C | 48% | 1011.6 hPa | 0 mm | - | - | - |
| 1787843599 | 22.78° C | 49% | 1011.6 hPa | 0 mm | - | - | - |
| 1787843312 | 22.22° C | 50% | 1011.5 hPa | 0 mm | - | - | - |
| 1787843002 | 21.67° C | 51% | 1011.6 hPa | 0 mm | - | - | - |
| 1787842710 | 21.11° C | 52% | 1011.6 hPa | 0 mm | - | - | - |
| 1787842399 | 20.56° C | 53% | 1011.4 hPa | 0 mm | - | - | - |
| 1787842107 | 19.44° C | 56% | 1011.5 hPa | 0 mm | - | - | - |
| 1787841817 | 18.89° C | 58% | 1011.5 hPa | 0 mm | - | - | - |
| 1787841504 | 18.33° C | 59% | 1011.5 hPa | 0 mm | - | - | - |
| 1787841214 | 18.33° C | 59% | 1011.4 hPa | 0 mm | - | - | - |
| 1787840904 | 17.78° C | 59% | 1011.5 hPa | 0 mm | - | - | - |
| 1787840596 | 17.78° C | 58% | 1011.4 hPa | 0 mm | - | - | - |
| 1787840304 | 17.78° C | 57% | 1011.4 hPa | 0 mm | - | - | - |
| 1787840013 | 17.78° C | 56% | 1011.5 hPa | 0 mm | - | - | - |
* Rain latest hour (hover to see other rain measurements)
** Current wind speed in m/s (hover to see current wind gust speed)